Date String (YYYY-MM-DD hh:mm:ss) UTC,Instrument flags,Ambient pressure (hPa),Sample flow (lpm),Bypass flow (lpm),Sample temperature (°C),Ambient temperature (°C),ASC tube jacket temperature (°C),LED temperature (°C),Box temperature (°C),Sample RH (%),Span deviation,Mass concentration (μg/m³),Mass concentration (μg/m³),Mass concentration (μg/m³)
DateTimeUTC,F1_M11,P_M11,Q1_M11,Q2_M11,T1_M11,T2_M11,T3_M11,T4_M11,T5_M11,U1_M11,ZSPAN_M11,X2_M11,X0_M11,X1_M11
2023-05-04 11:00:00,,0824.9,5.00,0.00,28.7,27.1,00.0,37.1,30.3,12.5,0000.0,0004.78,0013.24,0003.27
2023-05-04 11:01:00,,0824.9,4.98,0.00,28.7,27.1,00.0,37.1,30.3,12.5,0000.0,0004.78,0013.07,0003.28
2023-05-04 11:02:00,,0824.9,5.01,0.00,28.7,27.1,00.0,37.1,30.3,12.5,0000.0,0004.77,0013.09,0003.28
2023-05-04 11:03:00,,0825.0,5.01,0.00,28.7,27.1,00.0,37.1,30.3,12.5,0000.0,0004.80,0013.20,0003.27
2023-05-04 11:04:00,,0825.0,5.00,0.00,28.7,27.1,00.0,37.1,30.3,12.5,0000.0,0004.76,0013.70,0003.28
2023-05-04 11:05:00,,0824.9,5.00,0.00,28.7,27.1,00.0,37.1,30.3,12.5,0000.0,0004.76,0013.92,0003.29
2023-05-04 11:06:00,,0824.9,5.00,0.00,28.7,27.1,00.0,37.1,30.3,12.5,0000.0,0004.74,0013.12,0003.30
2023-05-04 11:07:00,,0824.9,5.01,0.00,28.7,27.0,00.0,37.1,30.3,12.5,0000.0,0004.70,0012.08,0003.27
2023-05-04 11:08:00,,0824.9,4.98,0.00,28.7,27.0,00.0,37.1,30.3,12.5,0000.0,0004.69,0011.71,0003.27
2023-05-04 11:09:00,,0824.9,4.99,0.00,28.7,27.0,00.0,37.1,30.3,12.5,0000.0,0004.71,0011.78,0003.27
2023-05-04 11:10:00,,0824.9,5.01,0.00,28.7,27.0,00.0,37.1,30.3,12.6,0000.0,0004.71,0011.88,0003.27
2023-05-04 11:11:00,,0824.9,5.00,0.00,28.7,27.0,00.0,37.1,30.3,12.6,0000.0,0004.70,0012.03,0003.28
2023-05-04 11:12:00,,0824.9,5.00,0.00,28.7,27.0,00.0,37.1,30.3,12.7,0000.0,0004.68,0012.15,0003.27
2023-05-04 11:13:00,,0824.9,5.00,0.00,28.7,27.0,00.0,37.1,30.2,12.7,0000.0,0004.69,0012.20,0003.27
2023-05-04 11:14:00,,0824.9,5.00,0.00,28.6,27.0,00.0,37.0,30.2,12.7,0000.0,0004.71,0012.32,0003.28
2023-05-04 11:15:00,,0824.9,5.00,0.00,28.6,26.9,00.0,37.0,30.1,12.8,0000.0,0004.73,0012.63,0003.29
2023-05-04 11:16:00,,0824.9,5.00,0.00,28.6,26.9,00.0,37.0,30.1,12.9,0000.0,0004.76,0012.21,0003.29
2023-05-04 11:17:00,,0824.9,5.00,0.00,28.6,26.9,00.0,37.0,30.1,12.9,0000.0,0004.75,0012.71,0003.29
2023-05-04 11:18:00,,0824.9,5.00,0.00,28.5,26.9,00.0,37.0,30.0,12.9,0000.0,0004.77,0013.55,0003.30
2023-05-04 11:19:00,,0824.9,5.00,0.00,28.5,26.8,00.0,37.0,30.0,13.0,0000.0,0004.77,0013.68,0003.31
2023-05-04 11:20:00,,0824.9,5.00,0.00,28.5,26.8,00.0,37.0,30.0,13.0,0000.0,0004.77,0013.50,0003.31
2023-05-04 11:21:00,,0824.9,5.00,0.00,28.5,26.8,00.0,37.0,30.0,13.0,0000.0,0004.71,0012.76,0003.31
2023-05-04 11:22:00,,0824.9,4.99,0.00,28.5,26.7,00.0,37.0,30.0,13.0,0000.0,0004.75,0012.48,0003.30
2023-05-04 11:23:00,,0824.9,5.00,0.00,28.5,26.7,00.0,36.9,30.0,12.9,0000.0,0004.76,0012.23,0003.30
2023-05-04 11:24:00,,0825.0,5.00,0.00,28.5,26.7,00.0,36.9,30.0,12.9,0000.0,0004.70,0012.15,0003.29
2023-05-04 11:25:00,,0824.9,5.00,0.00,28.4,26.7,00.0,36.9,30.0,12.9,0000.0,0004.73,0012.25,0003.29
2023-05-04 11:26:00,,0824.9,5.00,0.00,28.4,26.6,00.0,36.9,29.9,12.9,0000.0,0004.73,0012.44,0003.28
2023-05-04 11:27:00,,0824.9,5.00,0.00,28.4,26.6,00.0,36.9,29.9,12.9,0000.0,0004.79,0012.38,0003.28
2023-05-04 11:28:00,,0824.9,5.00,0.00,28.4,26.5,00.0,36.9,29.8,13.0,0000.0,0004.79,0011.84,0003.29
2023-05-04 11:29:00,,0824.9,5.00,0.00,28.3,26.5,00.0,36.9,29.8,13.0,0000.0,0004.76,0011.00,0003.29
2023-05-04 11:30:00,,0824.8,5.00,0.00,28.3,26.5,00.0,36.8,29.8,13.0,0000.0,0004.75,0010.89,0003.28
2023-05-04 11:31:00,,0824.9,5.00,0.00,28.3,26.4,00.0,36.8,29.8,13.1,0000.0,0004.76,0010.69,0003.27
2023-05-04 11:32:00,,0824.9,5.01,0.00,28.2,26.4,00.0,36.8,29.8,13.1,0000.0,0004.83,0011.17,0003.27
2023-05-04 11:33:00,,0824.8,5.01,0.00,28.2,26.4,00.0,36.8,29.8,13.1,0000.0,0004.86,0011.33,0003.28
2023-05-04 11:34:00,,0824.8,5.00,0.00,28.2,26.4,00.0,36.8,29.8,13.1,0000.0,0004.93,0011.62,0003.29
2023-05-04 11:35:00,,0824.7,4.99,0.00,28.2,26.4,00.0,36.8,29.7,13.1,0000.0,0004.98,0012.01,0003.30
2023-05-04 11:36:00,,0824.8,5.00,0.00,28.2,26.4,00.0,36.8,29.8,13.1,0000.0,0004.92,0011.97,0003.29
2023-05-04 11:37:00,,0824.8,5.00,0.00,28.2,26.4,00.0,36.7,29.7,13.1,0000.0,0004.92,0011.94,0003.29
2023-05-04 11:38:00,,0824.8,5.00,0.00,28.2,26.4,00.0,36.7,29.7,13.1,0000.0,0004.87,0013.22,0003.29
2023-05-04 11:39:00,,0824.8,5.01,0.00,28.2,26.5,00.0,36.7,29.7,13.1,0000.0,0004.86,0014.83,0003.28
2023-05-04 11:40:00,,0824.8,5.00,0.00,28.2,26.5,00.0,36.7,29.7,13.1,0000.0,0004.88,0015.10,0003.27
2023-05-04 11:41:00,,0824.8,5.01,0.00,28.2,26.5,00.0,36.7,29.7,13.1,0000.0,0004.92,0015.39,0003.26
2023-05-04 11:42:00,,0824.8,5.00,0.00,28.2,26.5,00.0,36.7,29.7,13.1,0000.0,0004.92,0015.31,0003.27
2023-05-04 11:43:00,,0824.8,5.00,0.00,28.2,26.5,00.0,36.7,29.8,13.1,0000.0,0004.85,0014.75,0003.27
2023-05-04 11:44:00,,0824.8,5.00,0.00,28.2,26.5,00.0,36.7,29.8,13.1,0000.0,0004.78,0014.69,0003.27
2023-05-04 11:45:00,,0824.8,4.99,0.00,28.2,26.5,00.0,36.7,29.8,13.1,0000.0,0004.73,0014.94,0003.27
2023-05-04 11:46:00,,0824.8,5.00,0.00,28.2,26.6,00.0,36.6,29.7,13.1,0000.0,0004.74,0014.90,0003.26
2023-05-04 11:47:00,,0824.8,4.99,0.00,28.2,26.6,00.0,36.6,29.7,13.1,0000.0,0004.75,0014.98,0003.26
2023-05-04 11:48:00,,0824.8,5.00,0.00,28.2,26.6,00.0,36.6,29.8,13.0,0000.0,0004.71,0014.98,0003.26
2023-05-04 11:49:00,,0824.8,4.99,0.00,28.2,26.6,00.0,36.6,29.8,13.1,0000.0,0004.66,0013.63,0003.26
2023-05-04 11:50:00,,0824.7,4.99,0.00,28.2,26.6,00.0,36.6,29.8,13.1,0000.0,0004.63,0012.16,0003.27
2023-05-04 11:51:00,,0824.7,5.00,0.00,28.2,26.6,00.0,36.6,29.8,13.1,0000.0,0004.66,0012.20,0003.28
2023-05-04 11:52:00,,0824.8,5.00,0.00,28.2,26.6,00.0,36.6,29.8,13.0,0000.0,0004.66,0011.95,0003.28
2023-05-04 11:53:00,,0824.7,5.00,0.00,28.2,26.5,00.0,36.6,29.8,13.0,0000.0,0004.63,0011.99,0003.29
2023-05-04 11:54:00,,0824.7,5.00,0.00,28.2,26.5,00.0,36.6,29.8,13.0,0000.0,0004.65,0012.14,0003.29
2023-05-04 11:55:00,,0824.8,5.01,0.00,28.2,26.5,00.0,36.6,29.7,13.0,0000.0,0004.62,0012.53,0003.29
2023-05-04 11:56:00,,0824.7,4.99,0.00,28.2,26.5,00.0,36.6,29.7,13.0,0000.0,0004.64,0013.13,0003.29
2023-05-04 11:57:00,,0824.8,4.99,0.00,28.2,26.6,00.0,36.6,29.7,13.1,0000.0,0004.67,0014.56,0003.30
2023-05-04 11:58:00,,0824.7,5.01,0.00,28.2,26.6,00.0,36.6,29.7,13.1,0000.0,0004.69,0015.29,0003.30
2023-05-04 11:59:00,,0824.8,5.02,0.00,28.2,26.6,00.0,36.6,29.7,13.1,0000.0,0004.69,0015.40,0003.30
